Location: Danville Conservation Area
(38.8674°N, 91.5143°W)
Time: 01:46:43
(UTC-06:00)

Envisat - Pass Details

Date: 07 December 2021
Orbit: 764 x 766 km, 98.2° (Epoch: 23 January)

Event Time Altitude Azimuth Distance (km) Brightness Sun altitude
Rises 17:15:44 0° 200° (SSW) 3,216 7.0 -6.4°
Reaches altitude 10° 17:18:29 10° 215° (SW) 2,296 6.5 -6.9°
Maximum altitude 17:22:25 23° 266° (W) 1,600 5.7 -7.6°
Drops below altitude 10° 17:26:23 10° 318° (NW) 2,308 5.8 -8.3°
Sets 17:29:11 0° 333° (NNW) 3,240 6.3 -8.8°
